Regional Weather Roundup
Issued by NWS Charleston, SC

Current Version | Previous Version | Text Only | Print | Product List | Glossary Off
Versions: 1 2 3 4 5 6 7 8 9 10 11 12 13 14 15 16 17 18 19 20 21 22 23 24 25 26 27 28 29 30 31 32 33 34 35 36 37 38 39 40 41 42 43 44 45 46 47 48 49 50
000 ASUS42 KCHS 062326 RWRCHS REGIONAL WEATHER ROUNDUP NATIONAL WEATHER SERVICE CHARLESTON SC 600 PM EST FRI MAR 06 2015 NOTE: "FAIR" INDICATES FEW OR NO CLOUDS BELOW 12,000 FEET WITH NO SIGNIFICANT WEATHER AND/OR OBSTRUCTIONS TO VISIBILITY. NOT ALL STATIONS ARE QUALITY CONTROLLED BY THE NATIONAL WEATHER SERVICE. USE DATA WITH CAUTION...ESPECIALLY DEWPOINT OBSERVATIONS. SCZ027-030-031-034>040-042>050-070000- ...SOUTHEAST SOUTH CAROLINA... CITY SKY/WX TMP DP RH WIND PRES REMARKS N CHARLESTON CLOUDY 46 30 53 N8 30.39R WATERFRONT PRK N/A 45 N/A N/A N10 N/A MOUNT PLEASANT CLOUDY 46 34 61 CALM 30.40R PINOPOLIS N/A 46 32 57 NE7 30.31S MONCKS CORNER MOCLDY 46 32 57 NE6 30.40R SUMMERVILLE MOCLDY 45 34 65 N3 30.41R BEAUFORT MCAS MOCLDY 47 35 63 N7 30.39R BEAUFORT ARPT FAIR 46 37 71 CALM 30.39S HILTON HEAD IS MOCLDY 45 39 81 N6 30.40R WALTERBORO MOCLDY 46 34 61 N3 30.40S ALLENDALE FAIR 48 34 57 N3 30.39R ...SOUTHERN MIDLANDS AND PEE DEE... CITY SKY/WX TMP DP RH WIND PRES REMARKS GEORGETOWN NOT AVBL KINGSTREE NOT AVBL ORANGEBURG PTCLDY 47 29 49 NW7 30.39R BARNWELL FAIR 46 34 61 E3 30.40R AIKEN FAIR 45 27 49 N3 30.41S MANNING FAIR 45 -26 4 NE3 30.41R COLUMBIA PTCLDY 48 26 42 W6 30.39R SUMTER CLEAR 47 25 42 NW5 30.37R FLORENCE CLEAR 45 23 42 NE6 30.40R MYRTLE BEACH MOCLDY 45 21 39 N13 30.41R N MYRTLE BEACH CLOUDY 44 23 43 N8 30.39R $$ GAZ063-065-086>088-099>101-113>116-118-119-134>141-150-070000- ...SOUTHEAST GEORGIA... CITY SKY/WX TMP DP RH WIND PRES REMARKS SAVANNAH ARPT CLOUDY 46 36 68 N3 30.40R HUNTER AAF CLOUDY 46 38 72 N8 30.38R FORT STEWART CLOUDY 46 37 71 N5 30.38R STATESBORO MOCLDY 46 39 75 CALM 30.40R SYLVANIA MOCLDY 47 39 72 N3 30.40R CLAXTON MOCLDY 46 39 76 N3 30.39S ...CSRA...CENTRAL AND FAR SOUTHEAST GEORGIA... CITY SKY/WX TMP DP RH WIND PRES REMARKS THOMSON CLEAR 49 35 58 N3 30.43R AUGUSTA-BUSH PTCLDY 51 28 41 N5 30.38R AUGUSTA-DANIEL PTCLDY 51 26 37 NW6 30.37S SWAINSBORO FAIR 50 32 50 CALM 30.39S VIDALIA CLOUDY 46 39 76 N3 30.39R EASTMAN MOCLDY 48 40 74 CALM 30.41S HAZLEHURST FAIR 49 41 74 N3 30.38R ALMA CLOUDY 47 38 71 N5 30.38S WAYCROSS CLOUDY 49 43 78 N7 30.39R JESUP CLOUDY 48 43 81 NE5 30.39S BAXLEY CLOUDY 48 39 71 CALM 30.38S BRUNSWICK CLOUDY 46 37 71 N6 30.40R SAINT SIMONS CLOUDY 45 39 79 N12 30.38R $$ SCZ027-028-034-036>038-045-046-048>050-GAZ119-141-070000- ...LAKE AND SUPPLEMENTAL COASTAL OBSERVATIONS... STATION/POSITION TIME TEMP WIND PRES WAVE SWELL AIR SEA DIR/SP/G HT/PER HT/PER/DIR (UTC) (F) (DEG/KT/KT) (MB) (FT/S) (FT/S/D) UPR LAKE MARION NOT AVBL WINYAH BAY 2245 44 360/ 5 1028.0R LAKE MURRAY 2300 46 170/ 3/ 6 1028.8R ACE BASIN NERRS NOT AVBL FORT PULASKI 2206 45 54 10/ 9/ 11 1029.2R SAPELO ISLAND 2300 46 360/ 11 1029.0R $$ ANZ835-935-AMZ111-154-330-350-352-354-370-450-454-472-070000- ...C-MAN AND BUOY OBSERVATIONS... STATION/POSITION TIME TEMP WIND PRES WAVE SWELL AIR SEA DIR/SP/G HT/PER HT/PER/DIR (UTC) (F) (DEG/KT/KT) (MB) (FT/S) (FT/S/D) BUOY 41004 2250 44 67 10/ 19/ 23 1027.8R 8/ 7 5/ 9 BUOY 41008 2250 45 55 20/ 17/ 23 1028.3R 6/ 6 3/ 70/ 8 FOLLY BEACH CMAN 2300 45 340/ 8/ 10 1029.6R CAPERS NEARSHORE NOT AVBL FRIPP NEARSHORE 2200 44 350/ 12/ 14 1027.8R STATION/POSITION TIME TEMP WIND PRES WAVE SWELL AIR SEA DIR/SP/G HT/PER HT/PER/DIR (UTC) (F) (DEG/KT/KT) (MB) (FT/S) (FT/S/D) 5E ST. MARYS GA 2221 53 N/A 7/ 7 2/ 90/11 FRYING PAN BUOY 2250 42 58 20/ 17/ 21 1028.6R 7/ 7 3/ 80/ 9 BUOY 41025 NOT AVBL CAPE LOOKOUT NC 2300 10/ 13/ 16 1028.9R BUOY 41002 2250 64 72 40/ 17/ 21 1022.1R 9/10 7/ 10/10 BUOY 41010 2220 74 75 330/ 2/ 4 1020.9S ST AUGUSTINE FL 2300 48 360/ 30/ 34 1027.0R $$

USA.gov is the U.S. government's official web portal to all federal, state and local government web resources and services.